STARLINK-11286 [DTC]

Last updated on Mon Oct 14 2024 00:02:03 GMT+0000 (Coordinated Universal Time)

1 61050U 24164A 24287.53055982 .00035680 00000+0 22095-3 0 9991 2 61050 53.1547 316.3973 0005220 25.9962 334.1320 15.76728266 4979
UTC large
Height (km)
Speed (km/s)
/
Latitude / Longitude
Inclination (degrees)
Orbital Period (minutes)
Azimuth
Elevation
Range (km)
Doppler Factor

Next 0 passes for location: London (51.5072 / 0.1276)

Sorry there are no passes over London.